Regional Weather Roundup
Issued by NWS New Orleans/Baton Rouge, LA

Home | Current Version | Previous Version | Text Only | Print | Product List | Glossary Off
Versions: 1 2 3 4 5 6 7 8 9 10 11 12 13 14 15 16 17 18 19 20 21 22 23 24 25 26 27 28 29 30 31 32 33 34 35 36 37 38 39 40 41 42 43 44 45 46 47 48 49 50

469
ASUS44 KLIX 250510
RWRLIX
NEW ORLEANS REGIONAL WEATHER ROUNDUP
NATIONAL WEATHER SERVICE NEW ORLEANS LA
1100 PM CST MON NOV 24 2014

NOTE: "FAIR" INDICATES FEW OR NO CLOUDS BELOW 12,000 FEET WITH NO
      SIGNIFICANT WEATHER AND/OR OBSTRUCTIONS TO VISIBILITY.
      SKY/WX - SKY CONDITION AND SIGNIFICANT WEATHER.
      TMP - AIR TEMPERATURE.     DP    - DEWPOINT TEMPERATURE.
      RH  - RELATIVE HUMIDITY.   PRES  - PRESSURE.
      HI  - HEAT INDEX.          WCI   - WIND CHILL INDEX.

*  THESE STATIONS ARE NOT NWS OR FAA STATIONS AND ARE NOT UNDER
   NWS QUALITY CONTROL.

LAZ038-040-048-061>063-065>067-069-250600-
SOUTHEAST LOUISIANA

CITY           SKY/WX    TMP DP  RH WIND       PRES   REMARKS
N.O. AUDUBON     N/A     56  41  57 MISG        N/A
N.O. INTL ARPT PTCLDY    56  40  55 N10       30.08R
N.O. LAKEFRONT PTCLDY    57  42  57 N21       30.08R
N.O. DOWNTOWN*   N/A     57  37  47 N8        30.08R
SLIDELL        PTCLDY    51  41  68 N5        30.08R
BATON ROUGE    PTCLDY    47  40  76 CALM      30.10R
BOOTHVILLE     CLOUDY    60  50  69 N10       30.04R
BELLE CHASSE   MOCLDY    58  38  47 N9        30.06R
BOGALUSA*        N/A     46  41  82 N5        30.10S
NEW ROADS*       N/A     48  45  91 CALM      30.11R
GONZALES*        N/A     51  39  65 N3        30.09R
HAMMOND*       PTCLDY    48  39  71 CALM      30.11R
HOUMA*         MOCLDY    54  40  58 N9        30.07S
PORT FOURCHON* CLOUDY    61  45  55 N18G25    30.07S

$$

MSZ070-080>082-250600-
SOUTHERN MISSISSIPPI

CITY           SKY/WX    TMP DP  RH WIND       PRES   REMARKS
MCCOMB         MOCLDY    50  36  58 N6        30.09R
GULFPORT       CLOUDY    55  38  52 N10       30.04S
BILOXI         CLOUDY    56  39  51 N13       30.04S
PASCAGOULA     CLOUDY    57  41  55 N8        30.05R

$$

COASTAL OBSERVATIONS
LAKE AND NEARSHORE STATIONS

STATION/POSITION TIME  TEMP    WIND        PRES    WAVE
                       AIR SEA DIR/SP/G            HT/PER
                 (UTC) (F)     (DEG/KT/KT) (MB)    (FT/S)
PASCAGOULA       0500   58     360/ 13/ 18 1016.6
WAVELAND YACHT   0500   56     350/ 14/ 16 1017.0
GRAND ISLE       0500   61 65   10/ 19/ 22 1017.5
SOUTHWEST PASS   0500   63                 1016.9
NEW CANAL        0500   57 57   10/ 13/ 18 1018.7
SHELL BEACH      0500   58 55  340/ 19/ 21 1017.7

OFFSHORE STATIONS

STATION/POSITION TIME  TEMP    WIND        PRES    WAVE
                       AIR SEA DIR/SP/G            HT/PER
                 (UTC) (F)     (DEG/KT/KT) (MB)    (FT/S)
64 S DAUPHIN ISL 0439   66 71   10/ 21/ 25 1016.2    4/ 7

$$




USA.gov is the U.S. government's official web portal to all federal, state and local government web resources and services.